Tracking 17147 objects as of 4-July-2015
HD Live streaming from Space Station

UNHA 3 R/B

Track UNHA 3 R/B now!
10-day predictions
UNHA 3 R/B is classified as:


NORAD ID: 39027
Int'l Code: 2012-072B
Perigee: 491.8 km
Apogee: 578.2 km
Inclination: 97.3 °
Period: 95.2 minutes
Semi major axis: 6905 km
RCS: 1.274 m2 (large)
Launch date: December 12, 2012
Source: North Korea (NKOR)

Note: This is a ROCKET BODY
Your satellite tracking list
Your tracking list is empty





NASA's NSSDC Master Catalog

Two Line Element Set (TLE):
1 39027U 12072B   15185.14417481  .00001328  00000-0  75889-4 0  9998
2 39027 097.2913 211.4628 0062558 195.5707 164.3602 15.12748102140938

Source of the keplerian elements: AFSPC

N2YO: 285